CW7283 Weather Reports


time (UTC)temp
C
wind
direction
speed
KPH
gust
KPH
rain 1hr
cm
rain 24hr
cm
rain mn
cm
humidity
%
barometer
mb
20260503013324 15 360 0.0 3.2 0.00 0.00 0.00 37 1014.2
20260503011836 16 33 0.0 3.2 0.00 0.00 0.00 36 1014.2
20260503010324 16 17 0.0 3.2 0.00 0.00 0.00 36 1014.2
20260503004834 17 43 0.0 6.4 0.00 0.00 0.00 35 1014.2
20260503003409 17 31 0.0 3.2 0.00 0.00 0.00 36 1014.2
20260503001837 18 55 0.0 3.2 0.00 0.00 0.00 34 1014.2
20260503000400 18 40 0.0 6.4 0.00 0.00 0.00 34 1014.2
20260502234841 18 28 0.0 4.8 0.00 0.00 0.00 33 1014.2
20260502233333 18 9 0.0 6.4 0.00 0.00 0.00 33 1014.2
20260502231856 20 18 0.0 3.2 0.00 0.00 0.00 30 1014.2
20260502230326 21 355 0.0 4.8 0.00 0.00 0.00 29 1014.2
20260502224842 22 351 3.2 9.7 0.00 0.00 0.00 28 1014.3
20260502223330 21 28 3.2 11.3 0.00 0.00 0.00 30 1014.3
20260502221829 21 296 0.0 9.7 0.00 0.00 0.00 27 1014.6
20260502220350 22 9 1.6 16.1 0.00 0.00 0.00 29 1014.8
20260502214830 21 17 3.2 11.3 0.00 0.00 0.00 29 1014.8
20260502213347 21 337 1.6 12.9 0.00 0.00 0.00 30 1014.9
20260502211843 21 13 1.6 8.0 0.00 0.00 0.00 31 1015.1
20260502210348 20 287 3.2 11.3 0.00 0.00 0.00 29 1015.3
20260502204827 20 344 0.0 14.5 0.00 0.00 0.00 30 1015.3
20260502203326 20 13 1.6 12.9 0.00 0.00 0.00 31 1015.3
20260502201822 21 31 3.2 9.7 0.00 0.00 0.00 28 1015.3
20260502200340 21 348 1.6 11.3 0.00 0.00 0.00 29 1015.4
20260502194843 20 22 3.2 17.7 0.00 0.00 0.00 30 1015.3
20260502193333 21 15 3.2 9.7 0.00 0.00 0.00 28 1015.6
20260502191854 21 314 1.6 14.5 0.00 0.00 0.00 29 1015.6
20260502190343 20 308 0.0 12.9 0.00 0.00 0.00 28 1015.9
20260502184831 20 293 4.8 19.3 0.00 0.00 0.00 29 1015.9
20260502183337 20 308 3.2 11.3 0.00 0.00 0.00 28 1015.9
20260502181848 20 9 6.4 12.9 0.00 0.00 0.00 27 1015.9
20260502180344 20 294 4.8 12.9 0.00 0.00 0.00 28 1015.9
20260502170415 19 12 6.4 14.5 0.00 0.00 0.00 27 1016.0
20260502163332 19 315 6.4 11.3 0.00 0.00 0.00 27 1016.0
20260502161837 18 9 3.2 12.9 0.00 0.00 0.00 30 1016.0
20260502160413 18 13 3.2 8.0 0.00 0.00 0.00 34 1016.0
20260502151842 14 208 0.0 3.2 0.00 0.00 0.00 43 1016.0
20260502150342 12 162 0.0 3.2 0.00 0.00 0.00 44 1016.1
20260502130353 0 219 0.0 0.0 0.00 0.00 0.00 75 1016.3
20260502123352 0 219 0.0 0.0 0.00 0.00 0.00 75 1016.3
20260502121825 0 209 0.0 0.0 0.00 0.00 0.00 76 1016.3
20260502120326 0 218 0.0 0.0 0.00 0.00 0.00 76 1016.4
20260502114833 0 218 0.0 0.0 0.00 0.00 0.00 76 1016.4
20260502113325 0 218 0.0 0.0 0.00 0.00 0.00 74 1016.4
20260502111840 0 218 0.0 0.0 0.00 0.00 0.00 75 1016.4
20260502110345 0 219 0.0 0.0 0.00 0.00 0.00 75 1016.4
20260502104834 0 232 0.0 0.0 0.00 0.00 0.00 75 1016.5
20260502103345 0 232 0.0 0.0 0.00 0.00 0.00 74 1016.5
20260502101843 0 232 0.0 0.0 0.00 0.00 0.00 73 1016.5
20260502100401 0 232 0.0 0.0 0.00 0.00 0.00 71 1016.6
20260502090333 0 193 0.0 0.0 0.00 0.00 0.00 72 1016.8
20260502070329 2 182 0.0 0.0 0.00 0.00 0.00 68 1018.1
20260502064850 3 182 0.0 0.0 0.00 0.00 0.00 67 1018.2
20260502063348 3 182 0.0 0.0 0.00 0.00 0.00 65 1018.2
20260502061839 3 182 0.0 1.6 0.00 0.00 0.00 66 1018.2
20260502060334 3 176 0.0 0.0 0.00 0.00 0.00 64 1018.1
20260502054839 4 176 0.0 0.0 0.00 0.00 0.00 63 1018.3
20260502053333 5 176 0.0 0.0 0.00 0.00 0.00 62 1018.3
20260502051828 5 176 0.0 0.0 0.00 0.00 0.00 62 1018.3
20260502050334 5 182 0.0 0.0 0.00 0.00 0.00 61 1018.3
20260502044853 6 182 0.0 0.0 0.00 0.00 0.00 59 1018.3
20260502043338 6 182 0.0 0.0 0.00 0.00 0.00 59 1018.4
20260502041855 7 182 0.0 0.0 0.00 0.00 0.00 57 1018.6
20260502040358 7 179 0.0 0.0 0.00 0.00 0.00 53 1018.5
20260502034903 8 201 0.0 0.0 0.00 0.00 0.00 53 1018.4
20260502033342 8 202 0.0 0.0 0.00 0.00 0.00 52 1018.4
20260502031825 9 202 0.0 0.0 0.00 0.00 0.00 50 1018.3
20260502030338 10 212 0.0 3.2 0.00 0.00 0.00 47 1018.2
20260502024857 11 355 0.0 0.0 0.00 0.00 0.00 45 1017.8
20260502023337 12 355 0.0 0.0 0.00 0.00 0.00 42 1017.7
20260502021821 13 355 0.0 0.0 0.00 0.00 0.00 38 1017.7
20260502020359 14 355 0.0 0.0 0.00 0.00 0.00 36 1017.7
20260502014828 15 355 0.0 0.0 0.00 0.00 0.00 35 1017.7